[[{"header":{"parameterUnit":"m.s-1","parameterCategory":1,"la1":30.2991,"la2":30.254,"lo1":-89.0895,"lo2":-89.0444,"dy":0.0017,"dx":0.0017,"nx":28,"ny":28,"refTime":"2023-07-24T03:00:00:Z","depth":0,"parameterNumber":2,"parameterNumberName":"U-component_of_WINDS"},"data":[0,0,0,0,0,0,0,0,0,0,0,0,0,0,0,0,0,0,0,0,0,0,0,0,0,0,0,0,0,0,0,0,0,0,0,0,0,0,0,0,0,0,0,0,0,0,0,0,0,0,0,0,0,0,0,0,0,0,-0.2282,-0.2281,0,-0.2146,-0.2144,-0.2143,-0.2077,-0.2077,-0.2077,-0.2077,-0.1935,-0.1931,-0.1927,0,0,0,0,0,0,0,0,0,0,0,0,0,-0.2484,-0.2481,-0.2282,-0.2281,-0.2279,-0.2146,-0.2144,-0.2143,-0.2077,-0.2077,-0.2077,-0.2077,-0.1936,-0.1932,-0.1927,0,0,0,0,0,0,0,0,0,0,0,0,0,-0.2377,-0.248,-0.2283,-0.223,-0.2224,-0.2147,-0.2144,-0.2142,-0.2077,-0.2077,-0.2077,-0.2077,-0.1938,-0.1932,-0.1926,-0.1891,0,0,-0.1909,-0.1907,0,0,0,0,0,0,0,0,-0.2383,-0.237,-0.2239,-0.2233,-0.2226,-0.2128,-0.2163,-0.2058,-0.2077,-0.2132,-0.2077,-0.2077,-0.1999,-0.1988,-0.1963,-0.1884,-0.1878,-0.1909,-0.1905,-0.1903,-0.1901,0,0,0,0,0,0,0,-0.2391,-0.2375,-0.2228,-0.2238,-0.223,-0.2213,-0.2198,-0.2143,-0.2067,-0.2128,-0.2122,-0.2107,-0.1996,-0.1968,-0.1959,-0.1876,-0.1909,-0.1904,-0.19,-0.1898,-0.1762,-0.1762,0,0,0,0,0,0,-0.2407,-0.2382,-0.2233,-0.2224,-0.2307,-0.2209,-0.2192,-0.216,-0.2068,-0.2054,-0.2107,-0.2105,-0.1978,-0.1966,-0.1954,-0.1906,-0.1903,-0.1897,-0.1894,-0.1762,-0.1762,-0.1762,0,0,0,0,0,0,-0.2411,-0.2394,-0.2238,-0.2301,-0.228,-0.2206,-0.217,-0.2157,-0.213,-0.2052,-0.2038,-0.2094,-0.1978,-0.1962,-0.1907,-0.19,-0.1895,-0.189,-0.1762,-0.1762,-0.1762,-0.181,0,0,0,0,0,0,-0.2417,-0.2396,-0.2382,-0.2302,-0.2277,-0.2194,-0.2169,-0.2154,-0.212,-0.2116,-0.2036,-0.2022,-0.1976,-0.1916,-0.1902,-0.1892,-0.1885,-0.1763,-0.1762,-0.1762,-0.1809,-0.1812,-0.1814,0,0,0,0,0,-0.2425,-0.24,-0.2381,-0.2364,-0.2258,-0.2194,-0.218,-0.2128,-0.212,-0.2105,-0.2056,-0.2025,-0.1904,-0.1911,-0.1894,-0.1883,-0.1763,-0.1762,-0.1762,-0.1808,-0.1811,-0.1814,0,0,0,0,0,0,-0.248,-0.2389,-0.2367,-0.2315,-0.2263,-0.2183,-0.2162,-0.2133,-0.2081,-0.2079,-0.2016,-0.1999,-0.195,-0.1911,-0.1921,-0.1844,-0.183,-0.1827,-0.1871,-0.1874,-0.1876,-0.1886,-0.188,0,0,0,0,0,-0.2487,-0.2443,-0.2365,-0.2327,-0.2302,-0.2237,-0.2207,-0.2172,-0.2115,-0.2092,-0.2039,-0.1984,-0.1934,-0.1902,-0.1851,-0.1804,-0.1785,-0.1788,-0.179,-0.1793,-0.179,-0.1763,-0.1763,-0.176,-0.176,-0.176,0,0,-0.2499,-0.2443,-0.2419,-0.2337,-0.2292,-0.2248,-0.2219,-0.2173,-0.214,-0.2085,-0.2031,-0.199,-0.1925,-0.1874,-0.1849,-0.184,-0.1787,-0.1792,-0.1795,-0.179,-0.1763,-0.1763,-0.1763,-0.176,-0.176,-0.176,0,0,-0.2499,-0.2453,-0.2416,-0.2373,-0.2306,-0.2263,-0.2255,-0.2179,-0.215,-0.2095,-0.2054,-0.2013,-0.1927,-0.1883,-0.1849,-0.1835,-0.1805,-0.182,-0.1833,-0.1808,-0.1808,-0.1808,-0.1803,-0.1802,-0.1818,-0.1818,-0.1818,0,-0.2522,-0.2454,-0.2401,-0.2358,-0.2323,-0.2274,-0.2237,-0.2197,-0.2117,-0.2094,-0.2085,-0.1978,-0.193,-0.1869,-0.1866,-0.184,-0.1829,-0.1828,-0.1812,-0.1812,-0.1811,-0.1806,-0.1804,-0.182,-0.182,-0.182,-0.182,0,-0.2487,-0.2441,-0.2419,-0.2345,-0.2308,-0.2268,-0.2209,-0.2178,-0.2147,-0.2105,-0.205,-0.1992,-0.1929,-0.1912,-0.188,-0.1847,-0.1843,-0.1825,-0.1809,-0.1814,-0.1808,-0.1806,-0.1824,-0.1823,-0.1822,-0.1821,0,0,-0.2516,-0.2414,-0.2407,-0.2373,-0.2297,-0.226,-0.2219,-0.2158,-0.2133,-0.208,-0.2044,-0.1974,-0.1956,-0.1918,-0.1881,-0.1859,-0.1852,-0.1843,-0.184,-0.1847,-0.1812,-0.1827,-0.1825,-0.1833,-0.1832,-0.1832,-0.1818,0,-0.2505,-0.2428,-0.238,-0.2323,-0.2281,-0.2234,-0.2198,-0.2147,-0.2108,-0.2065,-0.2021,-0.1973,-0.1953,-0.193,-0.1906,-0.1858,-0.1845,-0.1859,-0.1798,-0.1797,-0.1815,-0.1822,-0.1837,-0.1826,-0.1815,-0.1815,-0.1814,0,-0.2481,-0.2431,-0.237,-0.23,-0.228,-0.2249,-0.219,-0.2151,-0.2093,-0.2066,-0.2025,-0.1988,-0.1943,-0.1932,-0.1869,-0.188,-0.1853,-0.1826,-0.1824,-0.1816,-0.1805,-0.1814,-0.1822,-0.182,-0.181,-0.1811,-0.1811,0,-0.2509,-0.2426,-0.2379,-0.2351,-0.2268,-0.2247,-0.2212,-0.2154,-0.2122,-0.2071,-0.2049,-0.1993,-0.1963,-0.192,-0.187,-0.1867,-0.1812,-0.1797,-0.1788,-0.1789,-0.1777,-0.1779,-0.1781,-0.1761,-0.1761,-0.1761,-0.1761,0,-0.2501,-0.2466,-0.239,-0.2361,-0.2321,-0.2266,-0.2227,-0.2188,-0.2137,-0.21,-0.2056,-0.2022,-0.1958,-0.1916,-0.1876,-0.183,-0.1817,-0.1793,-0.1783,-0.1797,-0.18,-0.1777,-0.1777,-0.176,-0.1761,-0.1761,-0.1761,0,-0.2524,-0.2472,-0.2418,-0.2345,-0.2326,-0.2299,-0.2236,-0.2206,-0.2166,-0.2119,-0.2105,-0.204,-0.1989,-0.1935,-0.1865,-0.1838,-0.1794,-0.178,-0.1814,-0.1808,-0.1802,-0.1803,-0.1789,-0.1785,-0.1769,-0.1769,-0.1769,0,-0.2522,-0.2494,-0.2419,-0.2391,-0.2357,-0.2313,-0.228,-0.2226,-0.2193,-0.2126,-0.2105,-0.2051,-0.2004,-0.1925,-0.1871,-0.1818,-0.1802,-0.1801,-0.1793,-0.1809,-0.1802,-0.1804,-0.1801,-0.1803,-0.1803,-0.1804,-0.1804,0,-0.2525,-0.2501,-0.2455,-0.2401,-0.2364,-0.2318,-0.2271,-0.2251,-0.2188,-0.2153,-0.2101,-0.2065,-0.1995,-0.1942,-0.1882,-0.1845,-0.1814,-0.1807,-0.1802,-0.1815,-0.1836,-0.1825,-0.182,-0.1807,-0.1807,-0.1807,-0.1806,-0.1806,-0.2535,-0.2508,-0.2452,-0.2403,-0.2362,-0.2319,-0.2288,-0.2245,-0.22,-0.2139,-0.211,-0.2058,-0.2002,-0.1919,-0.1883,-0.1842,-0.1833,-0.1825,-0.1823,-0.1822,-0.1826,-0.1844,-0.1831,-0.1831,-0.1831,-0.183,-0.183,0,-0.2535,-0.2497,-0.2453,-0.2389,-0.2351,-0.2326,-0.2273,-0.2243,-0.2198,-0.2149,-0.2105,-0.2046,-0.1994,-0.1938,-0.1883,-0.1861,-0.1846,-0.1849,-0.1849,-0.1841,-0.1837,-0.1847,-0.1862,-0.1862,-0.1862,-0.1862,-0.1862,-0.1862,-0.2531,-0.2485,-0.2455,-0.2388,-0.235,-0.2299,-0.2271,-0.2232,-0.2193,-0.2129,-0.2086,-0.2051,-0.1999,-0.1941,-0.1893,-0.1877,-0.1859,-0.1866,-0.1847,-0.1844,-0.1842,-0.1839,-0.1848,-0.1863,-0.1863,-0.1855,-0.1855,-0.1855]},{"header":{"parameterUnit":"m.s-1","parameterCategory":1,"la1":30.2991,"la2":30.254,"lo1":-89.0895,"lo2":-89.0444,"dy":0.0017,"dx":0.0017,"nx":28,"ny":28,"refTime":"2023-07-24T03:00:00:Z","depth":0,"parameterNumber":3,"parameterNumberName":"V-component_of_WINDS"},"data":[0,0,0,0,0,0,0,0,0,0,0,0,0,0,0,0,0,0,0,0,0,0,0,0,0,0,0,0,0,0,0,0,0,0,0,0,0,0,0,0,0,0,0,0,0,0,0,0,0,0,0,0,0,0,0,0,0,0,2.5497,2.5497,0,2.5479,2.5479,2.5478,2.5501,2.5502,2.5503,2.5504,2.5481,2.548,2.5478,0,0,0,0,0,0,0,0,0,0,0,0,0,2.5549,2.5548,2.5497,2.5497,2.5497,2.5479,2.5479,2.5478,2.5501,2.5502,2.5503,2.5504,2.5482,2.548,2.5478,0,0,0,0,0,0,0,0,0,0,0,0,0,2.5528,2.5547,2.5497,2.5506,2.5507,2.5479,2.5479,2.5478,2.5501,2.5502,2.5504,2.5505,2.5482,2.548,2.5478,2.5439,0,0,2.5472,2.5471,0,0,0,0,0,0,0,0,2.5529,2.5526,2.5505,2.5506,2.5506,2.5494,2.5488,2.5465,2.5501,2.5503,2.5504,2.5505,2.5484,2.5482,2.5475,2.5438,2.5437,2.5471,2.547,2.5469,2.5469,0,0,0,0,0,0,0,2.553,2.5527,2.549,2.5505,2.5506,2.551,2.5508,2.5484,2.5486,2.5503,2.5505,2.5502,2.5485,2.5477,2.5475,2.5437,2.5471,2.547,2.5468,2.5468,2.5364,2.5363,0,0,0,0,0,0,2.5531,2.5528,2.5491,2.5489,2.5521,2.5508,2.5506,2.5496,2.5487,2.5487,2.5501,2.5503,2.548,2.5478,2.5474,2.5426,2.5469,2.5467,2.5466,2.5365,2.5364,2.5362,0,0,0,0,0,0,2.5532,2.5528,2.5491,2.5509,2.5505,2.5506,2.5495,2.5495,2.5488,2.5486,2.5486,2.5494,2.5481,2.5477,2.5447,2.5426,2.5466,2.5464,2.5367,2.5365,2.5363,2.5331,0,0,0,0,0,0,2.5534,2.5528,2.5514,2.5509,2.5504,2.5466,2.5493,2.5494,2.5485,2.5488,2.5479,2.5478,2.5482,2.545,2.5445,2.5424,2.5463,2.5369,2.5366,2.5364,2.5334,2.5328,2.5323,0,0,0,0,0,2.5535,2.5506,2.5514,2.5509,2.5487,2.5465,2.5462,2.5468,2.5483,2.5469,2.5467,2.5478,2.543,2.5447,2.5442,2.5419,2.537,2.5367,2.5364,2.5336,2.5329,2.5323,0,0,0,0,0,0,2.5508,2.5505,2.5514,2.5482,2.5473,2.5469,2.545,2.546,2.5446,2.5449,2.5456,2.5454,2.5422,2.5418,2.5438,2.538,2.5402,2.5398,2.5383,2.5376,2.5371,2.5371,2.5461,0,0,0,0,0,2.5499,2.5482,2.548,2.5452,2.5447,2.545,2.544,2.5446,2.5437,2.5433,2.5429,2.5418,2.54,2.5388,2.5372,2.5334,2.5331,2.5315,2.531,2.5305,2.53,2.5277,2.5269,2.5351,2.5351,2.5351,0,0,2.5478,2.5475,2.5464,2.5446,2.544,2.5421,2.5446,2.5426,2.5411,2.5429,2.54,2.5397,2.5386,2.5351,2.5335,2.5347,2.5277,2.5301,2.5297,2.5295,2.5273,2.5265,2.5258,2.5349,2.5349,2.535,0,0,2.5431,2.5428,2.5403,2.5397,2.5388,2.5389,2.5383,2.5377,2.5375,2.5347,2.5359,2.5341,2.5311,2.5302,2.5293,2.5241,2.525,2.5236,2.5206,2.5183,2.5176,2.5171,2.515,2.5142,2.5231,2.5231,2.5231,0,2.5407,2.538,2.5389,2.5367,2.5357,2.5374,2.5348,2.5341,2.5326,2.5319,2.5332,2.5293,2.5287,2.5249,2.5236,2.5229,2.522,2.5236,2.5177,2.5171,2.5166,2.5146,2.5138,2.5229,2.523,2.523,2.523,0,2.5349,2.533,2.5311,2.5297,2.5286,2.5261,2.5265,2.5252,2.5258,2.5258,2.5227,2.5221,2.5202,2.5194,2.52,2.5156,2.5162,2.5176,2.5199,2.5156,2.5137,2.513,2.5227,2.5227,2.5228,2.5228,0,0,2.5283,2.5274,2.5267,2.526,2.5251,2.5235,2.5211,2.5194,2.5181,2.5171,2.5149,2.5122,2.5135,2.5125,2.513,2.511,2.5066,2.5126,2.5125,2.5113,2.5014,2.5002,2.4993,2.5073,2.5071,2.507,2.5014,0,2.5234,2.5193,2.52,2.5159,2.514,2.5156,2.5134,2.5125,2.5124,2.5106,2.5104,2.5084,2.5104,2.5097,2.5079,2.5075,2.5046,2.508,2.505,2.5049,2.505,2.4983,2.4971,2.4918,2.5007,2.5006,2.5005,0,2.5171,2.5158,2.5116,2.5108,2.5101,2.5081,2.5065,2.5049,2.5038,2.5038,2.5027,2.5035,2.5008,2.5032,2.4995,2.5017,2.5006,2.5002,2.5,2.4996,2.5023,2.4975,2.4902,2.4893,2.4994,2.4994,2.4995,0,2.5124,2.5097,2.5067,2.5061,2.5052,2.5038,2.5033,2.5024,2.5012,2.4997,2.4989,2.4972,2.4961,2.4946,2.4948,2.4966,2.4908,2.4934,2.4905,2.4905,2.4891,2.4891,2.4812,2.4887,2.4888,2.4888,2.4888,0,2.5068,2.504,2.5046,2.5028,2.4997,2.5004,2.4973,2.497,2.4962,2.4941,2.4954,2.4934,2.4939,2.4919,2.492,2.4887,2.4883,2.488,2.4881,2.4878,2.4878,2.4869,2.4871,2.4886,2.4886,2.4886,2.4887,0,2.501,2.5013,2.4981,2.4975,2.4972,2.495,2.4944,2.4925,2.4925,2.4899,2.4893,2.4892,2.4869,2.487,2.4844,2.4844,2.4803,2.4808,2.4806,2.4807,2.4777,2.4779,2.4688,2.4675,2.4761,2.476,2.4759,0,2.4972,2.4951,2.4943,2.4931,2.4925,2.4905,2.4894,2.49,2.4887,2.4872,2.4854,2.4833,2.4816,2.4777,2.4773,2.4752,2.4756,2.4726,2.4753,2.475,2.4752,2.4752,2.4749,2.4719,2.4718,2.4718,2.4717,0,2.4904,2.4906,2.489,2.4873,2.4858,2.4845,2.4833,2.4822,2.4827,2.4811,2.4788,2.4775,2.4748,2.4725,2.4705,2.4698,2.4707,2.4709,2.4701,2.4696,2.4695,2.4692,2.4789,2.471,2.4711,2.4711,2.4712,2.4712,2.4853,2.4835,2.4825,2.4806,2.4797,2.4786,2.4767,2.4765,2.4746,2.4725,2.473,2.4703,2.4691,2.4665,2.4656,2.4634,2.4644,2.4633,2.463,2.4626,2.4622,2.47,2.463,2.4631,2.4631,2.4631,2.4631,0,2.4784,2.4778,2.476,2.4743,2.4727,2.4739,2.4726,2.4711,2.4688,2.4676,2.4659,2.4631,2.4608,2.4602,2.458,2.4563,2.4566,2.4557,2.4557,2.4554,2.4615,2.4623,2.4554,2.4554,2.4554,2.4554,2.4554,2.4554,2.4745,2.4714,2.4715,2.4679,2.4673,2.4648,2.4639,2.4627,2.4618,2.4586,2.4568,2.4565,2.4554,2.4531,2.451,2.4509,2.4499,2.4487,2.4487,2.4543,2.4551,2.4558,2.4565,2.4485,2.4485,2.4428,2.4427,2.4427]}]]